Texarkana Regional Webb Field Texarkana US
ICAO: KTXK
IATA: TXK
Category: Medium
Scheduled Services: Yes

Elevation: 390 ft
TransAlt. 18000 ft.

Airport Communications:
ATIS:120.2
FORT WORTH CNTR:123.925
CTAF:125.7
GND:121.7
JONESBORO RDO:122.45
TWR:125.7

KTXK Zoom In..

If you have problems with the map follow the link
https://www.worldairports.se/pages/airport.php?
ICAO=KTXK

Runways:

(A) RW 04 length 6601 ft width 144 ft
---- / hdg 40

(B) RW 13 length 5200 ft width 100 ft
---- / hdg 130

(C) RW 22 length 6601 ft width 144 ft
ILS 111.90 / hdg 220

(D) RW 31 length 5200 ft width 100 ft
---- / hdg 310

Location; KTXK
Day. 19 / Time. 18.24 Zulu
* Altimeter: 30.52
* Temperature: 10° c. 50°f.
* Wind from: KTX° Speed K kn.
Dewpoint: -07° c.
Visibility: 10 Statute Miles.
Clouds: Clear (automated report).

KTXK 191824Z 34011KT 10SM CLR 10/M07 A3052 RMK AO2 T01001067


Wind From KTX°
Speed K kn.

 
 
jpsmedia worldairports.se 2020   terms of use